Location: Columbia
(38.9520°N, 92.3340°W)
Time: 15:58:08
(UTC-05:00)

SJ-11-01 - Visible Passes

Search period start: 29 August 2015 00:00
Search period end: 08 September 2015 00:00
Orbit: 685 x 703 km, 98.2° (Epoch: 29 August)

Date Brightness Start Highest point End Pass type
(mag) Time Alt. Az. Time Alt. Az. Time Alt. Az.
29 Aug 4.2 21:07:36 19° SSE 21:10:59 72° ENE 21:15:43 10° N visible
29 Aug 7.1 22:48:02 10° WSW 22:49:11 11° W 22:50:00 10° WNW visible
30 Aug 5.8 20:10:39 10° ESE 20:13:53 19° ENE 20:17:17 10° NNE visible
30 Aug 5.3 21:48:22 21° SSW 21:51:12 43° W 21:55:42 10° NNW visible
31 Aug 4.6 20:50:26 17° SE 20:53:50 47° ENE 20:58:22 10° N visible
31 Aug 6.8 22:29:09 12° SW 22:31:43 17° W 22:34:36 10° NW visible
01 Sep 4.6 21:31:14 25° S 21:33:56 66° W 21:38:38 10° NNW visible
02 Sep 5.1 20:33:18 14° SE 20:36:41 31° ENE 20:40:52 10° N visible
02 Sep 6.2 22:12:01 18° SW 22:14:19 25° W 22:18:08 10° NW visible
03 Sep 4.2 21:14:06 27° SSE 21:16:43 82° ENE 21:21:26 10° N visible
04 Sep 5.6 20:16:10 10° ESE 20:19:34 22° ENE 20:23:11 10° NNE visible
04 Sep 5.6 21:54:53 25° SW 21:56:58 37° W 22:01:19 10° NNW visible
05 Sep 4.4 20:56:57 25° SE 20:59:31 54° ENE 21:04:08 10° N visible
05 Sep 6.8 22:35:41 12° WSW 22:37:31 14° W 22:39:57 10° WNW visible
06 Sep 6.0 20:00:01 10° E 20:02:30 15° ENE 20:05:11 10° NNE visible
06 Sep 4.8 21:37:45 33° SSW 21:39:40 57° W 21:44:19 10° NNW visible
07 Sep 4.9 20:39:49 20° ESE 20:42:22 35° ENE 20:46:40 10° N visible
07 Sep 6.4 22:18:33 19° WSW 22:20:05 22° W 22:23:38 10° NW visible
